Location: Unspecified
(0.0000°N, 0.0000°E)
Time: 23:24:20
(UTC+02:00)

ASC 2 Rocket - Visible Passes

Search period start: 17 April 2014 00:00
Search period end: 27 April 2014 00:00
Orbit: 556 x 2350 km, 24.0° (Epoch: 16 April)

Date Brightness Start Highest point End Pass type
(mag) Time Alt. Az. Time Alt. Az. Time Alt. Az.
17 Apr 6.2 06:18:48 17° SSW 06:24:21 29° SSE 06:34:15 10° E visible
17 Apr 3.3 20:57:37 10° WNW 21:03:34 84° NNE 21:05:56 28° ESE visible
18 Apr 6.3 05:17:33 19° SSE 05:17:54 19° SSE 05:24:19 10° ESE visible
18 Apr 5.9 07:13:04 10° SW 07:22:01 51° SSE 07:34:37 10° E visible
18 Apr 4.6 21:55:41 10° W 21:59:41 31° SW 21:59:41 31° SW visible
19 Apr 5.8 06:11:12 23° SSW 06:15:30 34° SSE 06:25:33 10° E visible
19 Apr 3.8 20:48:44 10° WNW 20:55:11 63° SSW 20:58:32 19° SE visible
20 Apr 6.2 05:09:58 21° SSE 05:09:58 21° SSE 05:16:03 10° ESE visible
20 Apr 5.5 07:04:52 12° SW 07:12:56 61° SSE 07:25:23 10° ENE visible
20 Apr 5.0 21:47:33 10° W 21:51:56 23° SSW 21:52:16 23° SSW visible
21 Apr 5.4 06:03:39 31° SSW 06:06:38 41° SSE 06:16:40 10° E visible
21 Apr 4.6 20:39:56 10° W 20:46:41 44° SSW 20:51:05 12° SE visible
22 Apr 6.1 05:02:26 23° SE 05:02:26 23° SE 05:07:41 10° E visible
22 Apr 5.1 06:57:20 17° WSW 07:03:55 76° SSE 07:15:58 10° ENE visible
22 Apr 5.4 21:39:36 10° WSW 21:43:29 17° SSW 21:44:48 16° S visible
23 Apr 4.8 05:56:07 45° S 05:57:47 51° SSE 06:07:38 10° ENE visible
23 Apr 5.2 20:31:16 10° W 20:38:06 33° SSW 20:42:57 10° SE visible
24 Apr 6.1 04:54:54 24° ESE 04:54:54 24° ESE 04:59:10 10° E visible
24 Apr 4.8 06:49:48 23° WSW 06:55:02 85° NNW 07:06:25 10° ENE visible
24 Apr 5.7 21:31:54 10° WSW 21:35:03 14° SSW 21:37:16 11° S visible
25 Apr 4.3 05:48:34 65° S 05:49:01 67° SSE 05:58:27 10° ENE visible
25 Apr 5.7 20:22:44 10° W 20:29:28 26° SSW 20:34:24 10° SSE visible
26 Apr 6.1 04:47:20 22° E 04:47:20 22° E 04:50:31 10° E visible
26 Apr 4.7 06:42:14 28° W 06:46:20 65° NNW 06:56:45 10° ENE visible
26 Apr 6.0 21:24:30 10° SW 21:26:40 12° SSW 21:28:37 10° S visible
